Regional Weather Roundup
Issued by NWS Charleston, SC

Current Version | Previous Version | Text Only | Print | Product List | Glossary Off
Versions: 1 2 3 4 5 6 7 8 9 10 11 12 13 14 15 16 17 18 19 20 21 22 23 24 25 26 27 28 29 30 31 32 33 34 35 36 37 38 39 40 41 42 43 44 45 46 47 48 49 50

000
ASUS42 KCHS 230227
RWRCHS

Regional Weather Roundup
National Weather Service Charleston SC
900 PM EST THU FEB 22 2018

NOTE: "fair" indicates few or no clouds below 12,000 feet with no
significant weather and/or obstructions to visibility.

Not all stations are quality controlled. Use data with caution,
especially dewpoint observations.

SCZ027-030-031-034>040-042>050-230300-
...Southeast South Carolina...

CITY           SKY/WX    TMP DP  RH WIND       PRES   REMARKS
N Charleston   FAIR      66  60  81 SE7       30.43S
Waterfront Prk   N/A     64  62  93 CALM      30.29S
Mount Pleasant FAIR      64  63  94 CALM      30.44S
Johns Island   FAIR      63  61  94 SE5       30.44S
Pinopolis        N/A     66  63  88 VRB2      30.34S
Moncks Corner  FAIR      63  59  88 CALM      30.44R
Summerville    FAIR      64  59  82 CALM      30.44S
Beaufort MCAS  FAIR      65  62  90 S5        30.43S
Beaufort Arpt  FAIR      63  59  88 CALM      30.43S
Hilton Head Is FAIR      64  59  82 CALM      30.44S
Walterboro     FAIR      64  59  82 SE3       30.44S
Allendale      FAIR      66  61  82 S5        30.42R

...Southern Midlands and Pee Dee...

CITY           SKY/WX    TMP DP  RH WIND       PRES   REMARKS
Georgetown     FAIR      59  59 100 CALM      30.45S
Kingstree      FAIR      64  61  88 SE5       30.43S
Orangeburg     FAIR      68  58  70 S8        30.42R
Barnwell         N/A     70  63  78 S5        30.43R
Aiken          FAIR      64  61  88 S3        30.45S
Manning        FAIR      68  41  37 MISG      30.43S
Columbia       FAIR      70  62  76 CALM      30.40R
Sumter         FAIR      64  58  82 CALM      30.40R
Florence       FAIR      65  59  81 S8        30.42R
Myrtle Beach   FAIR      66  62  87 S8        30.45S
N Myrtle Beach FAIR      65  61  87 S6        30.44R

$$

GAZ063-065-086>088-099>101-113>116-118-119-134>141-150-230300-
...Southeast Georgia...

CITY           SKY/WX    TMP DP  RH WIND       PRES   REMARKS
Savannah Arpt  FAIR      67  61  81 SE6       30.42F
Hunter AAF     FAIR      64  59  83 E5        30.40F
Fort Stewart   FAIR      65  61  87 SE6       30.40S
Statesboro     FAIR      68  60  75 CALM      30.43R
Sylvania       FAIR      68  64  87 CALM      30.43S
Claxton        FAIR      69  64  83 CALM      30.42R

...CSRA, Central and far Southeast Georgia...

CITY           SKY/WX    TMP DP  RH WIND       PRES   REMARKS
Thomson        FAIR      65  61  87 CALM      30.46S
Augusta-Bush   FAIR      63  60  90 CALM      30.40R
Augusta-Daniel FAIR      73  60  63 SE3       30.42R
Swainsboro     FAIR      68  61  77 SE5       30.42R
Vidalia        FAIR      68  63  83 SE5       30.42R
Eastman        FAIR      64  57  78 CALM      30.43S HAZE
Hazlehurst     FAIR      71  58  64 SE6       30.40R
Alma           FAIR      71  62  73 SE6       30.40R
Waycross       FAIR      69  65  87 SE6       30.41S
Jesup          FAIR      68  63  83 CALM      30.42S
Baxley         FAIR      68  64  88 SE5       30.41R
Brunswick      FAIR      61  59  94 E3        30.43S
Saint Simons   FAIR      66  64  93 E5        30.42R

$$

SCZ027-028-034-036>038-045-046-048>050-GAZ119-141-230300-
...Lake and Supplemental Coastal Observations...

STATION/POSITION TIME  TEMP    WIND        PRES    WAVE   SWELL
                       AIR SEA DIR/SP/G            HT/PER HT/PER/DIR
                 (UTC) (F)     (DEG/KT/KT) (MB)    (FT/S) (FT/S/D)
Winyah Bay       0145   65     190/  3     1031.0S
Lake Murray      0150   68      CALM  /  1 1029.1R
ACE Basin NERRS  0145   62        CALM     1030.0S
Fort Pulaski     0200   66 63  120/  5/  6 1030.7
Sapelo Island    0200   64     100/  3     1030.0

$$

ANZ835-935-AMZ111-154-330-350-352-354-370-450-454-472-230300-
...C-MAN and Buoy Observations...

STATION/POSITION TIME  TEMP    WIND        PRES    WAVE   SWELL
                       AIR SEA DIR/SP/G            HT/PER HT/PER/DIR
                 (UTC) (F)     (DEG/KT/KT) (MB)    (FT/S) (FT/S/D)
Buoy 41004       0210   70 69   60/  2/  4 1030.8
Buoy 41008       0150   63 61   60/  6/  8 1030.3R   4/ 8   3/130/ 8
Folly Beach CMAN 0200   65     130/  8/  9 1031.3S
Capers Nearshore 0208   61 64  140/  8/ 10 1030.6R
Fripp Nearshore  0208   62 63  110/  6/ 10 1028.9F


STATION/POSITION TIME  TEMP    WIND        PRES    WAVE   SWELL
                       AIR SEA DIR/SP/G            HT/PER HT/PER/DIR
                 (UTC) (F)     (DEG/KT/KT) (MB)    (FT/S) (FT/S/D)
5E St. Marys GA  0200      66                N/A     3/ 8   2/ 90/17
Frying Pan Buoy  0210   71 71  180/  8/  8 1031.3
Buoy 41025       0210   73 76  200/ 12/ 14 1031.7
Cape Lookout NC  0200          180/  6/  6 1031.5R
Buoy 41002       0150   72 74  140/  6/  8 1032.5R   5/ 9   5/110/ 9
Buoy 41010       NOT AVBL
St Augustine FL  0200   69 69  100/  8/  9 1029.7R


$$




USA.gov is the U.S. government's official web portal to all federal, state and local government web resources and services.